Location: Bronnegerveen
(52.9548°N, 6.8388°E)
Time: 02:21:37
(UTC+00:00)

NPP - Pass Details

Date: 15 June 2025
Orbit: 826 x 827 km, 98.8° (Epoch: 07 July)

Event Time Altitude Azimuth Distance (km) Brightness Sun altitude
Rises 01:24:50 0° 16° (NNE) 3,382 8.9 -10.0°
Reaches altitude 10° 01:27:12 10° 19° (NNE) 2,444 7.7 -9.8°
Maximum altitude 01:32:37 73° 104° (ESE) 869 3.8 -9.4°
Drops below altitude 10° 01:38:00 10° 190° (S) 2,426 5.5 -9.0°
Enters shadow 01:38:05 10° 190° (S) 2,462 5.5 -9.0°
